Location: Mahannah Oil Field
(37.4664°N, 96.6003°W)
Time: 05:33:21
(UTC+00:00)

Tiros 1 despin weight - Pass Details

Date: 25 January 2021
Orbit: 593 x 642 km, 48.2° (Epoch: 06 March)

Event Time Altitude Azimuth Distance (km) Brightness Sun altitude
Rises 02:46:23 0° 301° (WNW) 2,840 ? -36.5°
Reaches altitude 10° 02:48:42 10° 298° (WNW) 1,931 ? -36.9°
Enters shadow 02:49:08 13° 297° (WNW) 1,761 ? -37.0°
